Terminal Aerodrome Forecast
Issued by NWS Knoxville/Tri Cities, TN

Home | Current Version | Previous Version | Text Only | Print | Product List | Glossary On
Versions: 1 2 3 4 5 6 7 8 9 10 11 12 13 14 15
000
FTUS44 KMRX 290520
TAFCHA
TAF
KCHA 290520Z 2906/3006 24005KT P6SM BKN250
      TEMPO 2906/2909 6SM -RA BKN015
     FM291400 24006KT P6SM BKN025
     FM291600 24008KT P6SM SCT040 BKN100
     FM292000 25009KT P6SM VCTS BKN040CB
     FM300200 00000KT P6SM SCT050 BKN100=

USA.gov is the U.S. government's official web portal to all federal, state and local government web resources and services.